When you browse on this site, cookies collect data to enhance your experience and personalize the content and advertising you see.
Visit our Privacy Policy to learn more. By continuing to use the site, you agree to this use of cookies and data.
  • In Österreich
  • Länderverzeichnis
  • Für 7 Tage
  • Wassertemperatur
  • Wetterkarte
  • News
  • Widgets
  • user-avatar
    Anmelden

    Stündliche Wetter Hlukhiv Druhyi

    Heute, 17 September, Dienstag

    Zeit Temperatur Niederschläge Wind Luftdruck Luftfeuchtigkeit
    00:00 +11°C° 0 mm 3 m/S 742 mmHg 74%
    01:00 +10°C° 0 mm 3 m/S 742 mmHg 74%
    02:00 +10°C° 0 mm 3 m/S 742 mmHg 74%
    03:00 +9°C° 0 mm 3 m/S 742 mmHg 75%
    04:00 +9°C° 0 mm 3 m/S 741 mmHg 77%
    05:00 +9°C° 0 mm 3 m/S 741 mmHg 78%
    06:00 +10°C° 0 mm 4 m/S 741 mmHg 73%
    07:00 +11°C° 0 mm 4 m/S 741 mmHg 67%
    08:00 +12°C° 0 mm 5 m/S 741 mmHg 62%
    09:00 +13°C° 0 mm 5 m/S 741 mmHg 58%
    10:00 +14°C° 0 mm 5 m/S 741 mmHg 54%
    11:00 +15°C° 0 mm 6 m/S 741 mmHg 50%
    12:00 +15°C° 0 mm 6 m/S 740 mmHg 48%
    13:00 +16°C° 0 mm 5 m/S 740 mmHg 47%
    14:00 +16°C° 0 mm 5 m/S 740 mmHg 45%
    15:00 +16°C° 0 mm 5 m/S 739 mmHg 47%
    16:00 +15°C° 0 mm 4 m/S 739 mmHg 49%
    17:00 +15°C° 0 mm 4 m/S 739 mmHg 50%
    18:00 +14°C° 0 mm 4 m/S 739 mmHg 52%
    19:00 +14°C° 0 mm 4 m/S 739 mmHg 54%
    20:00 +13°C° 0 mm 4 m/S 739 mmHg 56%
    21:00 +12°C° 0 mm 4 m/S 738 mmHg 57%
    22:00 +12°C° 0 mm 4 m/S 738 mmHg 59%
    23:00 +12°C° 0 mm 4 m/S 737 mmHg 60%

    Morgen, 18 September, Mittwoch

    Zeit Temperatur Niederschläge Wind Luftdruck Luftfeuchtigkeit
    00:00 +10°C° 0.1 mm 5 m/S 737 mmHg 65%
    01:00 +10°C° 0.1 mm 5 m/S 737 mmHg 70%
    02:00 +9°C° 0.1 mm 6 m/S 737 mmHg 75%
    03:00 +9°C° 0.2 mm 6 m/S 737 mmHg 77%
    04:00 +8°C° 0.2 mm 6 m/S 737 mmHg 79%
    05:00 +7°C° 0.2 mm 6 m/S 736 mmHg 81%
    06:00 +6°C° 0.1 mm 7 m/S 737 mmHg 79%
    07:00 +6°C° 0.1 mm 8 m/S 737 mmHg 77%
    08:00 +6°C° 0.1 mm 9 m/S 737 mmHg 76%
    09:00 +7°C° 0.1 mm 9 m/S 738 mmHg 72%
    10:00 +7°C° 0.1 mm 9 m/S 738 mmHg 68%
    11:00 +7°C° 0.1 mm 9 m/S 739 mmHg 65%
    12:00 +7°C° 0 mm 9 m/S 739 mmHg 63%
    13:00 +8°C° 0 mm 9 m/S 739 mmHg 60%
    14:00 +8°C° 0 mm 9 m/S 739 mmHg 58%
    15:00 +9°C° 0.2 mm 8 m/S 739 mmHg 63%
    16:00 +9°C° 0.2 mm 8 m/S 740 mmHg 68%
    17:00 +9°C° 0.2 mm 7 m/S 740 mmHg 73%
    18:00 +8°C° 0 mm 6 m/S 741 mmHg 75%
    19:00 +8°C° 0 mm 6 m/S 741 mmHg 78%
    20:00 +7°C° 0 mm 5 m/S 742 mmHg 80%
    21:00 +7°C° 0 mm 5 m/S 743 mmHg 81%
    22:00 +7°C° 0 mm 5 m/S 743 mmHg 82%
    23:00 +7°C° 0 mm 6 m/S 744 mmHg 82%

    übermorgen, 19 September, Donnerstag

    Zeit Temperatur Niederschläge Wind Luftdruck Luftfeuchtigkeit
    00:00 +7°C° 0 mm 6 m/S 744 mmHg 83%
    01:00 +6°C° 0 mm 5 m/S 744 mmHg 83%
    02:00 +6°C° 0 mm 5 m/S 745 mmHg 84%
    03:00 +5°C° 0 mm 5 m/S 745 mmHg 85%
    04:00 +5°C° 0 mm 5 m/S 745 mmHg 86%
    05:00 +5°C° 0 mm 5 m/S 745 mmHg 87%
    06:00 +5°C° 0 mm 6 m/S 746 mmHg 83%
    07:00 +5°C° 0 mm 6 m/S 746 mmHg 80%
    08:00 +7°C° 0 mm 6 m/S 746 mmHg 76%
    09:00 +9°C° 0 mm 6 m/S 746 mmHg 68%
    10:00 +10°C° 0 mm 6 m/S 746 mmHg 61%
    11:00 +13°C° 0 mm 6 m/S 747 mmHg 53%
    12:00 +13°C° 0 mm 6 m/S 747 mmHg 50%
    13:00 +14°C° 0 mm 6 m/S 746 mmHg 47%
    14:00 +15°C° 0 mm 5 m/S 746 mmHg 45%
    15:00 +14°C° 0.2 mm 5 m/S 746 mmHg 50%
    16:00 +13°C° 0.2 mm 5 m/S 746 mmHg 56%
    17:00 +12°C° 0.2 mm 4 m/S 746 mmHg 61%
    18:00 +10°C° 0.1 mm 4 m/S 746 mmHg 69%
    19:00 +9°C° 0.1 mm 3 m/S 746 mmHg 76%
    20:00 +7°C° 0.1 mm 3 m/S 747 mmHg 83%
    21:00 +7°C° 0 mm 3 m/S 747 mmHg 86%
    22:00 +5°C° 0 mm 3 m/S 747 mmHg 88%
    23:00 +5°C° 0 mm 3 m/S 747 mmHg 91%

    20 September, Freitag

    Zeit Temperatur Niederschläge Wind Luftdruck Luftfeuchtigkeit
    00:00 +4°C° 0 mm 3 m/S 746 mmHg 91%
    01:00 +4°C° 0 mm 3 m/S 746 mmHg 92%
    02:00 +4°C° 0 mm 3 m/S 746 mmHg 92%
    03:00 +4°C° 0 mm 3 m/S 746 mmHg 92%
    04:00 +4°C° 0 mm 4 m/S 746 mmHg 92%
    05:00 +4°C° 0 mm 4 m/S 746 mmHg 92%
    06:00 +5°C° 0 mm 4 m/S 746 mmHg 89%
    07:00 +5°C° 0 mm 5 m/S 746 mmHg 85%
    08:00 +5°C° 0 mm 6 m/S 746 mmHg 81%
    09:00 +5°C° 0 mm 6 m/S 746 mmHg 77%
    10:00 +7°C° 0 mm 6 m/S 747 mmHg 73%
    11:00 +7°C° 0 mm 6 m/S 747 mmHg 69%
    12:00 +8°C° 0 mm 6 m/S 747 mmHg 64%
    13:00 +8°C° 0 mm 6 m/S 747 mmHg 59%
    14:00 +9°C° 0 mm 6 m/S 747 mmHg 54%
    15:00 +8°C° 0.1 mm 6 m/S 747 mmHg 60%
    16:00 +7°C° 0.1 mm 6 m/S 747 mmHg 67%
    17:00 +5°C° 0.1 mm 6 m/S 747 mmHg 73%
    18:00 +5°C° 0.2 mm 6 m/S 748 mmHg 77%
    19:00 +5°C° 0.2 mm 6 m/S 748 mmHg 81%
    20:00 +4°C° 0.2 mm 6 m/S 749 mmHg 84%
    21:00 +4°C° 0 mm 6 m/S 749 mmHg 85%
    22:00 +4°C° 0 mm 6 m/S 749 mmHg 85%
    23:00 +4°C° 0 mm 6 m/S 750 mmHg 85%

    21 September, Samstag

    Zeit Temperatur Niederschläge Wind Luftdruck Luftfeuchtigkeit
    00:00 +3°C° 0 mm 5 m/S 750 mmHg 87%
    01:00 +2°C° 0 mm 5 m/S 750 mmHg 90%
    02:00 +1°C° 0 mm 5 m/S 751 mmHg 92%
    03:00 +1°C° 0 mm 4 m/S 751 mmHg 93%
    04:00 0°C° 0 mm 4 m/S 751 mmHg 94%
    05:00 +1°C° 0 mm 3 m/S 752 mmHg 96%
    06:00 +2°C° 0 mm 3 m/S 752 mmHg 90%
    07:00 +3°C° 0 mm 3 m/S 752 mmHg 84%
    08:00 +4°C° 0 mm 4 m/S 753 mmHg 78%
    09:00 +6°C° 0 mm 4 m/S 753 mmHg 68%
    10:00 +8°C° 0 mm 4 m/S 753 mmHg 59%
    11:00 +11°C° 0 mm 4 m/S 753 mmHg 49%
    12:00 +11°C° 0 mm 4 m/S 753 mmHg 47%
    13:00 +12°C° 0 mm 5 m/S 752 mmHg 45%
    14:00 +12°C° 0 mm 5 m/S 752 mmHg 43%
    15:00 +12°C° 0 mm 4 m/S 752 mmHg 46%
    16:00 +11°C° 0 mm 3 m/S 752 mmHg 48%
    17:00 +11°C° 0 mm 3 m/S 751 mmHg 51%
    18:00 +10°C° 0 mm 3 m/S 751 mmHg 54%
    19:00 +8°C° 0 mm 2 m/S 751 mmHg 58%
    20:00 +7°C° 0 mm 2 m/S 751 mmHg 61%
    21:00 +7°C° 0.1 mm 2 m/S 751 mmHg 67%
    22:00 +7°C° 0.1 mm 2 m/S 751 mmHg 73%
    23:00 +7°C° 0.1 mm 2 m/S 751 mmHg 79%

    22 September, Sonntag

    Zeit Temperatur Niederschläge Wind Luftdruck Luftfeuchtigkeit
    00:00 +8°C° 0.1 mm 3 m/S 751 mmHg 82%
    01:00 +8°C° 0.1 mm 3 m/S 750 mmHg 86%
    02:00 +7°C° 0.1 mm 4 m/S 750 mmHg 89%
    03:00 +7°C° 0.3 mm 4 m/S 750 mmHg 91%
    04:00 +9°C° 0.3 mm 3 m/S 750 mmHg 92%
    05:00 +9°C° 0.3 mm 3 m/S 750 mmHg 94%
    06:00 +9°C° 0.2 mm 3 m/S 750 mmHg 94%
    07:00 +10°C° 0.2 mm 4 m/S 750 mmHg 94%
    08:00 +10°C° 0.2 mm 4 m/S 750 mmHg 94%
    09:00 +11°C° 0.1 mm 4 m/S 751 mmHg 94%
    10:00 +11°C° 0.1 mm 3 m/S 751 mmHg 93%
    11:00 +11°C° 0.1 mm 3 m/S 752 mmHg 92%
    12:00 +12°C° 0 mm 3 m/S 752 mmHg 90%
    13:00 +12°C° 0 mm 3 m/S 752 mmHg 87%
    14:00 +13°C° 0 mm 3 m/S 752 mmHg 85%
    15:00 +13°C° 0 mm 3 m/S 752 mmHg 84%
    16:00 +14°C° 0 mm 2 m/S 752 mmHg 82%
    17:00 +14°C° 0 mm 2 m/S 753 mmHg 81%
    18:00 +14°C° 0 mm 2 m/S 753 mmHg 84%
    19:00 +13°C° 0 mm 2 m/S 753 mmHg 87%
    20:00 +12°C° 0 mm 1 m/S 754 mmHg 90%
    21:00 +10°C° 0 mm 2 m/S 754 mmHg 91%
    22:00 +10°C° 0 mm 2 m/S 754 mmHg 92%
    23:00 +9°C° 0 mm 2 m/S 754 mmHg 92%
    Mehr zeigen